12-09-2023, 00:00:03,    204,    0.0,   15.9,   0.00,   0.00, 1011.0,    0.2, -999.0
12-09-2023, 00:00:13,    204,    0.0,   15.9,   0.00,   0.00, 1011.0,    0.3, -999.0
12-09-2023, 00:00:23,    204,    0.0,   15.9,   0.00,   0.00, 1011.0,    0.2, -999.0
12-09-2023, 00:00:33,    204,    0.0,   15.9,   0.00,   0.00, 1011.0,    0.3, -999.0
12-09-2023, 00:00:43,    204,    0.0,   15.9,   0.00,   0.00, 1011.0,    0.2, -999.0
12-09-2023, 00:00:53,    204,    0.0,   15.8,   0.00,   0.00, 1011.0,    0.2, -999.0
12-09-2023, 00:01:03,    204,    0.0,   15.8,   0.00,   0.00, 1011.0,    0.2, -999.0
12-09-2023, 00:01:13,    204,    0.0,   15.9,   0.00,   0.00, 1011.0,    0.3, -999.0
12-09-2023, 00:01:23,    204,    0.0,   15.9,   0.00,   0.00, 1011.0,    0.1, -999.0
12-09-2023, 00:01:33,    204,    0.0,   15.9,   0.00,   0.00, 1011.0,    0.3, -999.0
12-09-2023, 00:01:43,    203,    0.0,   15.9,   0.00,   0.00, 1011.0,    0.1, -999.0
12-09-2023, 00:01:53,    203,    0.0,   15.9,   0.00,   0.00, 1011.0,    0.2, -999.0
12-09-2023, 00:02:03,    203,    0.0,   15.8,   0.00,   0.00, 1011.0,    0.3, -999.0
12-09-2023, 00:02:13,    203,    0.0,   15.9,   0.00,   0.00, 1011.0,    0.2, -999.0
12-09-2023, 00:02:23,    203,    0.0,   15.9,   0.00,   0.00, 1011.0,    0.2, -999.0
12-09-2023, 00:02:33,    203,    0.0,   15.8,   0.00,   0.00, 1011.0,    0.3, -999.0
12-09-2023, 00:02:43,    203,    0.0,   15.8,   0.00,   0.00, 1011.0,    0.2, -999.0
12-09-2023, 00:02:53,    203,    0.0,   15.9,   0.00,   0.00, 1011.0,    0.3, -999.0
12-09-2023, 00:03:03,    203,    0.0,   15.9,   0.00,   0.00, 1010.9,    0.1, -999.0
12-09-2023, 00:03:13,    203,    0.0,   15.9,   0.00,   0.00, 1011.0,    0.3, -999.0
12-09-2023, 00:03:23,    203,    0.0,   15.9,   0.00,   0.00, 1011.0,    0.2, -999.0
12-09-2023, 00:03:33,    203,    0.0,   15.9,   0.00,   0.00, 1011.0,    0.2, -999.0
12-09-2023, 00:03:43,    203,    0.0,   15.9,   0.00,   0.00, 1011.0,    0.3, -999.0
12-09-2023, 00:03:53,    203,    0.0,   15.9,   0.00,   0.00, 1011.0,    0.2, -999.0
12-09-2023, 00:04:03,    202,    0.0,   15.9,   0.00,   0.00, 1011.0,    0.2, -999.0
12-09-2023, 00:04:13,    203,    0.0,   15.8,   0.00,   0.00, 1011.0,    0.3, -999.0
12-09-2023, 00:04:23,    203,    0.0,   15.9,   0.00,   0.00, 1011.0,    0.3, -999.0
12-09-2023, 00:04:33,    201,    0.0,   15.9,   0.00,   0.00, 1011.0,    0.3, -999.0
12-09-2023, 00:04:43,    203,    0.0,   15.9,   0.00,   0.00, 1011.0,    0.3, -999.0
12-09-2023, 00:04:52,    203,    0.0,   15.8,   0.00,   0.00, 1011.0,    0.3, -999.0
12-09-2023, 00:05:03,    203,    0.0,   15.9,   0.00,   0.00, 1011.0,    0.1, -999.0
12-09-2023, 00:05:13,    204,    0.0,   15.9,   0.00,   0.00, 1011.0,    0.3, -999.0
12-09-2023, 00:05:22,    203,    0.0,   15.9,   0.00,   0.00, 1011.0,    0.2, -999.0
12-09-2023, 00:05:32,    202,    0.0,   15.9,   0.00,   0.00, 1011.0,    0.3, -999.0
12-09-2023, 00:05:43,    203,    0.0,   15.8,   0.00,   0.00, 1011.0,    0.4, -999.0
12-09-2023, 00:05:52,    202,    0.0,   15.9,   0.00,   0.00, 1010.9,    0.2, -999.0
12-09-2023, 00:06:02,    203,    0.0,   15.9,   0.00,   0.00, 1011.0,    0.3, -999.0
12-09-2023, 00:06:12,    202,    0.0,   15.9,   0.00,   0.00, 1011.0,    0.3, -999.0
12-09-2023, 00:06:23,    202,    0.0,   15.8,   0.00,   0.00, 1011.0,    0.2, -999.0
12-09-2023, 00:06:32,    202,    0.0,   15.8,   0.00,   0.00, 1011.0,    0.2, -999.0
12-09-2023, 00:06:42,    202,    0.0,   15.8,   0.00,   0.00, 1011.0,    0.3, -999.0
12-09-2023, 00:06:52,    210,    0.0,   15.8,   0.00,   0.00, 1011.0,    0.3, -999.0
12-09-2023, 00:07:02,    210,    0.0,   15.8,   0.00,   0.00, 1011.0,    0.2, -999.0
12-09-2023, 00:07:12,    210,    0.0,   15.9,   0.00,   0.00, 1011.0,    0.3, -999.0
12-09-2023, 00:07:22,    210,    0.0,   15.8,   0.00,   0.00, 1011.0,    0.3, -999.0
12-09-2023, 00:07:32,    210,    0.0,   15.8,   0.00,   0.00, 1011.0,    0.4, -999.0
12-09-2023, 00:07:42,    210,    0.0,   15.8,   0.00,   0.00, 1011.0,    0.2, -999.0
12-09-2023, 00:07:52,    210,    0.0,   15.8,   0.00,   0.00, 1011.0,    0.2, -999.0
12-09-2023, 00:08:02,    211,    0.0,   15.8,   0.00,   0.00, 1011.0,    0.1, -999.0
12-09-2023, 00:08:12,    210,    0.0,   15.8,   0.00,   0.00, 1011.0,    0.3, -999.0
12-09-2023, 00:08:22,    210,    0.0,   15.8,   0.00,   0.00, 1011.0,    0.1, -999.0
12-09-2023, 00:08:32,    210,    0.0,   15.7,   0.00,   0.00, 1011.0,    0.3, -999.0
12-09-2023, 00:08:42,    210,    0.0,   15.7,   0.00,   0.00, 1011.0,    0.4, -999.0
12-09-2023, 00:08:52,    209,    0.0,   15.8,   0.00,   0.00, 1011.0,    0.3, -999.0
12-09-2023, 00:09:02,    210,    0.0,   15.8,   0.00,   0.00, 1010.9,    0.1, -999.0
12-09-2023, 00:09:12,    209,    0.0,   15.8,   0.00,   0.00, 1011.0,    0.3, -999.0
12-09-2023, 00:09:22,    210,    0.0,   15.8,   0.00,   0.00, 1011.0,    0.3, -999.0
12-09-2023, 00:09:32,    210,    0.0,   15.8,   0.00,   0.00, 1011.0,    0.2, -999.0
12-09-2023, 00:09:42,    211,    0.0,   15.7,   0.00,   0.00, 1011.0,    0.2, -999.0
12-09-2023, 00:09:52,    209,    0.0,   15.9,   0.00,   0.00, 1011.0,    0.2, -999.0
12-09-2023, 00:10:02,    210,    0.0,   15.8,   0.00,   0.00, 1011.0,    0.2, -999.0
12-09-2023, 00:10:11,    210,    0.0,   15.8,   0.00,   0.00, 1010.9,    0.2, -999.0
12-09-2023, 00:10:22,    210,    0.0,   15.9,   0.00,   0.00, 1011.0,    0.3, -999.0
12-09-2023, 00:10:32,    209,    0.0,   15.8,   0.00,   0.00, 1011.0,    0.1, -999.0
12-09-2023, 00:10:41,    210,    0.0,   15.9,   0.00,   0.00, 1011.0,    0.2, -999.0
12-09-2023, 00:10:52,    210,    0.0,   15.8,   0.00,   0.00, 1011.0,    0.2, -999.0
12-09-2023, 00:11:02,    210,    0.0,   15.8,   0.00,   0.00, 1011.0,    0.3, -999.0
12-09-2023, 00:11:12,    210,    0.0,   15.8,   0.00,   0.00, 1011.0,    0.2, -999.0
12-09-2023, 00:11:21,    210,    0.0,   15.8,   0.00,   0.00, 1010.9,    0.1, -999.0
12-09-2023, 00:11:32,    210,    0.0,   15.8,   0.00,   0.00, 1011.0,    0.3, -999.0
12-09-2023, 00:11:42,    210,    0.0,   15.9,   0.00,   0.00, 1011.0,    0.3, -999.0
12-09-2023, 00:11:51,    211,    0.0,   15.9,   0.00,   0.00, 1011.0,    0.2, -999.0
12-09-2023, 00:12:01,    210,    0.0,   15.9,   0.00,   0.00, 1011.0,    0.3, -999.0
12-09-2023, 00:12:12,    210,    0.0,   15.8,   0.00,   0.00, 1011.0,    0.2, -999.0
12-09-2023, 00:12:21,    210,    0.0,   15.9,   0.00,   0.00, 1011.0,    0.3, -999.0
12-09-2023, 00:12:31,    210,    0.0,   15.8,   0.00,   0.00, 1011.0,    0.3, -999.0
12-09-2023, 00:12:41,    210,    0.0,   15.8,   0.00,   0.00, 1011.0,    0.1, -999.0
12-09-2023, 00:12:51,    210,    0.0,   15.8,   0.00,   0.00, 1011.0,    0.2, -999.0
12-09-2023, 00:13:01,    211,    0.0,   15.9,   0.00,   0.00, 1011.0,    0.4, -999.0
12-09-2023, 00:13:11,    212,    0.0,   15.8,   0.00,   0.00, 1011.0,    0.1, -999.0
12-09-2023, 00:13:21,    212,    0.0,   15.9,   0.00,   0.00, 1011.0,    0.2, -999.0
12-09-2023, 00:13:31,    212,    0.0,   15.9,   0.00,   0.00, 1011.0,    0.3, -999.0
12-09-2023, 00:13:41,    212,    0.0,   15.8,   0.00,   0.00, 1011.0,    0.3, -999.0
12-09-2023, 00:13:51,    212,    0.0,   15.8,   0.00,   0.00, 1011.0,    0.1, -999.0
12-09-2023, 00:14:01,    212,    0.0,   15.8,   0.00,   0.00, 1010.9,    0.1, -999.0
12-09-2023, 00:14:11,    212,    0.0,   15.8,   0.00,   0.00, 1011.0,    0.3, -999.0
12-09-2023, 00:14:21,    213,    0.0,   15.8,   0.00,   0.00, 1011.0,    0.0, -999.0
12-09-2023, 00:14:31,    212,    0.0,   15.8,   0.00,   0.00, 1011.0,    0.3, -999.0
12-09-2023, 00:14:41,    212,    0.0,   15.8,   0.00,   0.00, 1011.0,    0.3, -999.0
12-09-2023, 00:14:51,    212,    0.0,   15.8,   0.00,   0.00, 1011.0,    0.0, -999.0
12-09-2023, 00:15:01,    213,    0.0,   15.8,   0.00,   0.00, 1011.0,    0.0, -999.0
12-09-2023, 00:15:11,    212,    0.0,   15.8,   0.00,   0.00, 1011.0,    0.1, -999.0
12-09-2023, 00:15:21,    212,    0.0,   15.8,   0.00,   0.00, 1011.0,    0.2, -999.0
12-09-2023, 00:15:31,    212,    0.0,   15.8,   0.00,   0.00, 1011.0,    0.3, -999.0
12-09-2023, 00:15:41,    210,    0.0,   15.8,   0.00,   0.00, 1011.0,    0.3, -999.0
12-09-2023, 00:15:51,    212,    0.0,   15.8,   0.00,   0.00, 1010.9,    0.2, -999.0
12-09-2023, 00:16:01,    212,    0.0,   15.8,   0.00,   0.00, 1011.0,    0.2, -999.0
12-09-2023, 00:16:11,    212,    0.0,   15.9,   0.00,   0.00, 1011.0,    0.4, -999.0
12-09-2023, 00:16:21,    212,    0.0,   15.8,   0.00,   0.00, 1010.9,    0.2, -999.0
12-09-2023, 00:16:31,    213,    0.0,   15.8,   0.00,   0.00, 1010.9,    0.2, -999.0
12-09-2023, 00:16:41,    212,    0.0,   15.7,   0.00,   0.00, 1010.9,    0.3, -999.0
12-09-2023, 00:16:51,    212,    0.0,   15.8,   0.00,   0.00, 1010.9,    0.3, -999.0
12-09-2023, 00:17:01,    212,    0.0,   15.8,   0.00,   0.00, 1010.9,    0.3, -999.0
12-09-2023, 00:17:10,    212,    0.0,   15.8,   0.00,   0.00, 1010.9,    0.4, -999.0
12-09-2023, 00:17:21,    213,    0.0,   15.8,   0.00,   0.00, 1010.9,    0.2, -999.0
12-09-2023, 00:17:31,    212,    0.0,   15.8,   0.00,   0.00, 1010.9,    0.2, -999.0
12-09-2023, 00:17:40,    212,    0.0,   15.8,   0.00,   0.00, 1010.9,    0.2, -999.0
12-09-2023, 00:17:50,    212,    0.0,   16.0,   0.00,   0.00, 1010.9,    0.3, -999.0
12-09-2023, 00:18:01,    212,    0.0,   15.9,   0.00,   0.00, 1010.9,    0.3, -999.0
12-09-2023, 00:18:10,    212,    0.0,   15.8,   0.00,   0.00, 1010.9,    0.2, -999.0
12-09-2023, 00:18:20,    212,    0.0,   15.8,   0.00,   0.00, 1010.9,    0.1, -999.0
12-09-2023, 00:18:30,    212,    0.0,   15.9,   0.00,   0.00, 1010.9,    0.5, -999.0
12-09-2023, 00:18:40,    212,    0.0,   15.8,   0.00,   0.00, 1010.9,    0.3, -999.0
12-09-2023, 00:18:50,    212,    0.0,   15.8,   0.00,   0.00, 1010.9,    0.1, -999.0
12-09-2023, 00:19:00,    212,    0.0,   15.7,   0.00,   0.00, 1010.9,    0.3, -999.0
12-09-2023, 00:19:10,    212,    0.0,   15.8,   0.00,   0.00, 1010.9,    0.4, -999.0
12-09-2023, 00:19:20,    212,    0.0,   15.8,   0.00,   0.00, 1010.9,    0.2, -999.0
12-09-2023, 00:19:30,    212,    0.0,   15.9,   0.00,   0.00, 1010.9,    0.3, -999.0
12-09-2023, 00:19:40,    212,    0.0,   15.8,   0.00,   0.00, 1010.9,    0.2, -999.0
12-09-2023, 00:19:50,    213,    0.0,   15.9,   0.00,   0.00, 1010.9,    0.4, -999.0
12-09-2023, 00:20:00,    212,    0.0,   15.8,   0.00,   0.00, 1010.9,    0.2, -999.0
12-09-2023, 00:20:10,    212,    0.0,   15.8,   0.00,   0.00, 1010.9,    0.2, -999.0
12-09-2023, 00:20:20,    212,    0.0,   15.8,   0.00,   0.00, 1010.9,    0.4, -999.0
12-09-2023, 00:20:30,    212,    0.0,   15.8,   0.00,   0.00, 1010.9,    0.4, -999.0
12-09-2023, 00:20:40,    212,    0.0,   15.8,   0.00,   0.00, 1010.9,    0.1, -999.0
12-09-2023, 00:20:50,    212,    0.0,   15.8,   0.00,   0.00, 1010.9,    0.6, -999.0
12-09-2023, 00:21:00,    213,    0.0,   15.8,   0.00,   0.00, 1010.9,    0.1, -999.0
12-09-2023, 00:21:10,    212,    0.0,   15.9,   0.00,   0.00, 1010.9,    0.2, -999.0
12-09-2023, 00:21:20,    217,    0.0,   16.0,   0.00,   0.00, 1010.9,    0.2, -999.0
12-09-2023, 00:21:30,    285,    0.0,   15.8,   0.00,   0.00, 1010.9,    0.0, -999.0
12-09-2023, 00:21:40,    285,    0.0,   15.8,   0.00,   0.00, 1010.9,    0.3, -999.0
12-09-2023, 00:21:50,    285,    0.0,   15.8,   0.00,   0.00, 1010.9,    0.3, -999.0
12-09-2023, 00:22:00,    285,    0.0,   15.8,   0.00,   0.00, 1010.9,    0.1, -999.0
12-09-2023, 00:22:10,    282,    0.0,   15.8,   0.00,   0.00, 1010.9,    0.4, -999.0
12-09-2023, 00:22:20,    275,    0.0,   15.9,   0.00,   0.00, 1010.9,    0.1, -999.0
12-09-2023, 00:22:30,    275,    0.0,   15.9,   0.00,   0.00, 1010.9,    0.4, -999.0
12-09-2023, 00:22:40,    275,    0.0,   15.9,   0.00,   0.00, 1010.9,    0.1, -999.0
12-09-2023, 00:22:50,    275,    0.0,   15.8,   0.00,   0.00, 1010.9,    0.0, -999.0
12-09-2023, 00:22:59,    274,    0.0,   15.8,   0.00,   0.00, 1010.9,    0.0, -999.0
12-09-2023, 00:23:10,    275,    0.0,   15.8,   0.00,   0.00, 1010.9,    0.1, -999.0
12-09-2023, 00:23:20,    275,    0.0,   15.8,   0.00,   0.00, 1010.9,    0.5, -999.0
12-09-2023, 00:23:29,    274,    0.0,   15.7,   0.00,   0.00, 1010.8,    0.6, -999.0
12-09-2023, 00:23:39,    273,    0.0,   15.7,   0.00,   0.00, 1010.9,    0.7, -999.0
12-09-2023, 00:23:50,    274,    0.0,   15.7,   0.00,   0.00, 1010.9,    0.6, -999.0
12-09-2023, 00:23:59,    275,    0.0,   15.8,   0.00,   0.00, 1010.9,    0.4, -999.0
12-09-2023, 00:24:09,    275,    0.0,   15.8,   0.00,   0.00, 1010.9,    0.0, -999.0
12-09-2023, 00:24:19,    275,    0.0,   15.7,   0.00,   0.00, 1010.9,    0.0, -999.0
12-09-2023, 00:24:29,    275,    0.0,   15.8,   0.00,   0.00, 1010.9,    0.0, -999.0
12-09-2023, 00:24:39,    275,    0.0,   15.9,   0.00,   0.00, 1010.9,    0.4, -999.0
12-09-2023, 00:24:49,    275,    0.0,   15.8,   0.00,   0.00, 1010.9,    0.5, -999.0
12-09-2023, 00:24:59,    277,    0.0,   15.8,   0.00,   0.00, 1011.0,    0.5, -999.0
12-09-2023, 00:25:09,    275,    0.0,   15.8,   0.00,   0.00, 1011.0,    0.0, -999.0
12-09-2023, 00:25:19,    219,    0.0,   15.9,   0.00,   0.00, 1011.0,    0.1, -999.0
12-09-2023, 00:25:29,    220,    0.0,   15.8,   0.00,   0.00, 1010.9,    0.5, -999.0
12-09-2023, 00:25:39,    220,    0.0,   15.8,   0.00,   0.00, 1010.9,    0.4, -999.0
12-09-2023, 00:25:49,    223,    0.0,   15.8,   0.00,   0.00, 1010.9,    0.3, -999.0
12-09-2023, 00:25:59,    231,    0.0,   15.8,   0.00,   0.00, 1010.9,    0.2, -999.0
12-09-2023, 00:26:09,    230,    0.0,   15.8,   0.00,   0.00, 1010.9,    0.3, -999.0
12-09-2023, 00:26:19,    230,    0.0,   15.8,   0.00,   0.00, 1011.0,    0.3, -999.0
12-09-2023, 00:26:29,    230,    0.0,   15.9,   0.00,   0.00, 1010.9,    0.3, -999.0
12-09-2023, 00:26:39,    230,    0.0,   15.8,   0.00,   0.00, 1011.0,    0.2, -999.0
12-09-2023, 00:26:49,    230,    0.0,   15.9,   0.00,   0.00, 1011.0,    0.3, -999.0
12-09-2023, 00:26:59,    230,    0.0,   15.8,   0.00,   0.00, 1011.0,    0.3, -999.0
12-09-2023, 00:27:09,    230,    0.0,   15.9,   0.00,   0.00, 1011.0,    0.0, -999.0
12-09-2023, 00:27:19,    231,    0.0,   15.9,   0.00,   0.00, 1010.9,    0.3, -999.0
12-09-2023, 00:27:29,    230,    0.0,   15.8,   0.00,   0.00, 1011.0,    0.3, -999.0
12-09-2023, 00:27:39,    230,    0.0,   15.8,   0.00,   0.00, 1011.0,    0.0, -999.0
12-09-2023, 00:27:49,    230,    0.0,   15.9,   0.00,   0.00, 1011.0,    0.2, -999.0
12-09-2023, 00:27:59,    230,    0.0,   15.8,   0.00,   0.00, 1011.0,    0.2, -999.0
12-09-2023, 00:28:09,    231,    0.0,   15.8,   0.00,   0.00, 1010.9,    0.1, -999.0
12-09-2023, 00:28:19,    230,    0.0,   15.9,   0.00,   0.00, 1011.0,    0.5, -999.0
12-09-2023, 00:28:29,    230,    0.0,   15.9,   0.00,   0.00, 1011.0,    0.3, -999.0
12-09-2023, 00:28:39,    230,    0.0,   15.9,   0.00,   0.00, 1011.0,    0.2, -999.0
12-09-2023, 00:28:49,    230,    0.0,   15.8,   0.00,   0.00, 1010.9,    0.4, -999.0
12-09-2023, 00:28:59,    230,    0.0,   15.9,   0.00,   0.00, 1011.0,    0.1, -999.0
12-09-2023, 00:29:09,    230,    0.0,   15.8,   0.00,   0.00, 1011.0,    0.2, -999.0
12-09-2023, 00:29:18,    230,    0.0,   15.8,   0.00,   0.00, 1011.0,    0.3, -999.0
12-09-2023, 00:29:29,    230,    0.0,   15.8,   0.00,   0.00, 1011.0,    0.3, -999.0
12-09-2023, 00:29:39,    239,    0.0,   15.8,   0.00,   0.00, 1011.0,    0.2, -999.0
12-09-2023, 00:29:48,    240,    0.0,   15.8,   0.00,   0.00, 1011.0,    0.2, -999.0
12-09-2023, 00:29:58,    241,    0.0,   15.8,   0.00,   0.00, 1011.0,    0.4, -999.0
12-09-2023, 00:30:09,    240,    0.0,   15.9,   0.00,   0.00, 1011.0,    0.1, -999.0
12-09-2023, 00:30:19,    241,    0.0,   15.7,   0.00,   0.00, 1011.0,    0.2, -999.0
12-09-2023, 00:30:28,    240,    0.0,   15.9,   0.00,   0.00, 1011.0,    0.3, -999.0
12-09-2023, 00:30:38,    241,    0.0,   15.9,   0.00,   0.00, 1011.0,    0.3, -999.0
12-09-2023, 00:30:49,    240,    0.0,   15.8,   0.00,   0.00, 1011.0,    0.3, -999.0
12-09-2023, 00:30:58,    241,    0.0,   15.7,   0.00,   0.00, 1011.0,    0.2, -999.0
12-09-2023, 00:31:08,    241,    0.0,   15.8,   0.00,   0.00, 1011.0,    0.3, -999.0
12-09-2023, 00:31:18,    240,    0.0,   15.8,   0.00,   0.00, 1011.0,    0.2, -999.0
12-09-2023, 00:31:28,    240,    0.0,   15.8,   0.00,   0.00, 1011.0,    0.2, -999.0
12-09-2023, 00:31:38,    241,    0.0,   15.8,   0.00,   0.00, 1011.0,    0.3, -999.0
12-09-2023, 00:31:48,    241,    0.0,   15.7,   0.00,   0.00, 1011.0,    0.3, -999.0
12-09-2023, 00:31:58,    241,    0.0,   15.8,   0.00,   0.00, 1011.0,    0.1, -999.0
12-09-2023, 00:32:08,    240,    0.0,   15.8,   0.00,   0.00, 1011.0,    0.2, -999.0
12-09-2023, 00:32:18,    240,    0.0,   15.7,   0.00,   0.00, 1011.0,    0.2, -999.0
12-09-2023, 00:32:28,    240,    0.0,   15.8,   0.00,   0.00, 1011.0,    0.3, -999.0
12-09-2023, 00:32:38,    241,    0.0,   15.8,   0.00,   0.00, 1011.0,    0.1, -999.0
12-09-2023, 00:32:48,    241,    0.0,   15.8,   0.00,   0.00, 1011.0,    0.3, -999.0
12-09-2023, 00:32:58,    241,    0.0,   15.8,   0.00,   0.00, 1010.9,    0.1, -999.0
12-09-2023, 00:33:08,    241,    0.0,   15.9,   0.00,   0.00, 1011.0,    0.3, -999.0
12-09-2023, 00:33:18,    240,    0.0,   15.8,   0.00,   0.00, 1011.0,    0.2, -999.0
12-09-2023, 00:33:28,    241,    0.0,   15.8,   0.00,   0.00, 1011.0,    0.3, -999.0
12-09-2023, 00:33:38,    240,    0.0,   15.8,   0.00,   0.00, 1011.0,    0.3, -999.0
12-09-2023, 00:33:48,    241,    0.0,   15.8,   0.00,   0.00, 1011.0,    0.1, -999.0
12-09-2023, 00:33:58,    241,    0.0,   15.8,   0.00,   0.00, 1011.0,    0.2, -999.0
12-09-2023, 00:34:08,    236,    0.0,   15.8,   0.00,   0.00, 1011.0,    0.3, -999.0
12-09-2023, 00:34:18,    241,    0.0,   15.8,   0.00,   0.00, 1011.0,    0.2, -999.0
12-09-2023, 00:34:28,    240,    0.0,   15.8,   0.00,   0.00, 1011.0,    0.3, -999.0
12-09-2023, 00:34:38,    241,    0.0,   15.8,   0.00,   0.00, 1011.0,    0.3, -999.0
12-09-2023, 00:34:48,    240,    0.0,   15.8,   0.00,   0.00, 1011.0,    0.3, -999.0
12-09-2023, 00:34:58,    240,    0.0,   15.8,   0.00,   0.00, 1011.0,    0.2, -999.0
12-09-2023, 00:35:07,    242,    0.0,   15.9,   0.00,   0.00, 1011.0,    0.3, -999.0
12-09-2023, 00:35:18,    242,    0.0,   15.9,   0.00,   0.00, 1010.9,    0.2, -999.0
12-09-2023, 00:35:28,    242,    0.0,   15.8,   0.00,   0.00, 1011.0,    0.2, -999.0
12-09-2023, 00:35:38,    243,    0.0,   16.0,   0.00,   0.00, 1011.0,    0.2, -999.0
12-09-2023, 00:35:47,    243,    0.0,   15.9,   0.00,   0.00, 1011.0,    0.3, -999.0
12-09-2023, 00:35:58,    243,    0.0,   15.9,   0.00,   0.00, 1011.0,    0.3, -999.0
12-09-2023, 00:36:08,    243,    0.0,   15.9,   0.00,   0.00, 1011.0,    0.2, -999.0
12-09-2023, 00:36:17,    243,    0.0,   15.8,   0.00,   0.00, 1011.0,    0.2, -999.0
12-09-2023, 00:36:27,    243,    0.0,   15.8,   0.00,   0.00, 1011.0,    0.3, -999.0
12-09-2023, 00:36:38,    243,    0.0,   15.9,   0.00,   0.00, 1010.9,    0.2, -999.0
12-09-2023, 00:36:47,    243,    0.0,   15.8,   0.00,   0.00, 1011.0,    0.3, -999.0
12-09-2023, 00:36:57,    243,    0.0,   15.8,   0.00,   0.00, 1011.0,    0.3, -999.0
12-09-2023, 00:37:07,    245,    0.0,   15.9,   0.00,   0.00, 1011.0,    0.2, -999.0
12-09-2023, 00:37:17,    244,    0.0,   15.8,   0.00,   0.00, 1011.0,    0.2, -999.0
12-09-2023, 00:37:27,    251,    0.0,   15.9,   0.00,   0.00, 1011.0,    0.3, -999.0
12-09-2023, 00:37:37,    251,    0.0,   15.7,   0.00,   0.00, 1011.0,    0.3, -999.0
12-09-2023, 00:37:47,    251,    0.0,   15.8,   0.00,   0.00, 1011.0,    0.3, -999.0
12-09-2023, 00:37:57,    251,    0.0,   15.9,   0.00,   0.00, 1010.9,    0.2, -999.0
12-09-2023, 00:38:07,    251,    0.0,   15.9,   0.00,   0.00, 1011.0,    0.3, -999.0
12-09-2023, 00:38:17,    251,    0.0,   15.9,   0.00,   0.00, 1011.0,    0.3, -999.0
12-09-2023, 00:38:27,    251,    0.0,   15.9,   0.00,   0.00, 1011.0,    0.2, -999.0
12-09-2023, 00:38:37,    251,    0.0,   15.9,   0.00,   0.00, 1011.0,    0.2, -999.0
12-09-2023, 00:38:47,    251,    0.0,   15.9,   0.00,   0.00, 1011.0,    0.2, -999.0
12-09-2023, 00:38:57,    251,    0.0,   15.9,   0.00,   0.00, 1011.0,    0.3, -999.0
12-09-2023, 00:39:07,    251,    0.0,   15.9,   0.00,   0.00, 1011.0,    0.2, -999.0
12-09-2023, 00:39:17,    251,    0.0,   16.0,   0.00,   0.00, 1011.0,    0.2, -999.0
12-09-2023, 00:39:27,    247,    0.0,   15.9,   0.00,   0.00, 1011.0,    0.3, -999.0
12-09-2023, 00:39:37,    247,    0.0,   15.9,   0.00,   0.00, 1011.0,    0.4, -999.0
12-09-2023, 00:39:47,    242,    0.0,   15.9,   0.00,   0.00, 1011.0,    0.1, -999.0
12-09-2023, 00:39:57,    241,    0.3,   15.8,   0.00,   0.00, 1011.0,    0.5, -999.0
12-09-2023, 00:40:07,    286,    1.4,   15.8,   0.00,   0.00, 1011.1,    0.3, -999.0
12-09-2023, 00:40:17,    286,    0.0,   15.9,   0.00,   0.00, 1011.0,    0.3, -999.0
12-09-2023, 00:40:27,    287,    0.0,   15.9,   0.00,   0.00, 1011.0,    0.3, -999.0
12-09-2023, 00:40:37,    286,    0.0,   15.8,   0.00,   0.00, 1011.0,    0.2, -999.0
12-09-2023, 00:40:47,    286,    0.0,   15.9,   0.00,   0.00, 1011.0,    0.5, -999.0
12-09-2023, 00:40:56,    286,    0.0,   15.9,   0.00,   0.00, 1011.0,    0.4, -999.0
12-09-2023, 00:41:07,    286,    0.0,   15.8,   0.00,   0.00, 1011.0,    0.3, -999.0
12-09-2023, 00:41:17,    286,    0.0,   15.7,   0.00,   0.00, 1011.0,    0.3, -999.0
12-09-2023, 00:41:27,    287,    0.0,   15.8,   0.00,   0.00, 1011.0,    0.5, -999.0
12-09-2023, 00:41:36,    286,    0.0,   15.8,   0.00,   0.00, 1011.0,    0.2, -999.0
12-09-2023, 00:41:47,    286,    0.0,   15.8,   0.00,   0.00, 1011.0,    0.3, -999.0
12-09-2023, 00:41:57,    286,    0.0,   15.9,   0.00,   0.00, 1011.0,    0.2, -999.0
12-09-2023, 00:42:06,    287,    0.0,   15.9,   0.00,   0.00, 1011.0,    0.1, -999.0
12-09-2023, 00:42:16,    286,    0.0,   15.9,   0.00,   0.00, 1011.0,    0.2, -999.0
12-09-2023, 00:42:27,    286,    0.0,   15.9,   0.00,   0.00, 1011.0,    0.4, -999.0
12-09-2023, 00:42:36,    286,    0.0,   15.8,   0.00,   0.00, 1011.0,    0.1, -999.0
12-09-2023, 00:42:46,    286,    0.0,   15.8,   0.00,   0.00, 1011.0,    0.4, -999.0
12-09-2023, 00:42:56,    287,    0.0,   15.9,   0.00,   0.00, 1011.0,    0.1, -999.0
12-09-2023, 00:43:07,    286,    0.0,   15.8,   0.00,   0.00, 1011.0,    0.3, -999.0
12-09-2023, 00:43:16,    286,    0.0,   15.8,   0.00,   0.00, 1011.0,    0.5, -999.0
12-09-2023, 00:43:26,    286,    0.0,   15.9,   0.00,   0.00, 1011.0,    0.3, -999.0
12-09-2023, 00:43:36,    286,    0.0,   15.8,   0.00,   0.00, 1011.0,    0.1, -999.0
12-09-2023, 00:43:46,    286,    0.0,   15.8,   0.00,   0.00, 1011.0,    0.2, -999.0
12-09-2023, 00:43:56,    286,    0.0,   15.8,   0.00,   0.00, 1011.0,    0.1, -999.0
12-09-2023, 00:44:06,    287,    0.0,   15.9,   0.00,   0.00, 1011.0,    0.3, -999.0
12-09-2023, 00:44:16,    286,    0.0,   15.9,   0.00,   0.00, 1011.0,    0.2, -999.0
12-09-2023, 00:44:26,    286,    0.0,   15.9,   0.00,   0.00, 1011.0,    0.3, -999.0
12-09-2023, 00:44:36,    286,    0.0,   15.8,   0.00,   0.00, 1011.0,    0.2, -999.0
12-09-2023, 00:44:46,    286,    0.0,   15.8,   0.00,   0.00, 1011.0,    0.4, -999.0
12-09-2023, 00:44:56,    287,    0.0,   15.8,   0.00,   0.00, 1011.0,    0.2, -999.0
12-09-2023, 00:45:06,    286,    0.0,   15.9,   0.00,   0.00, 1011.0,    0.2, -999.0
12-09-2023, 00:45:16,    286,    0.0,   15.8,   0.00,   0.00, 1011.0,    0.1, -999.0
12-09-2023, 00:45:26,    286,    0.0,   15.8,   0.00,   0.00, 1011.0,    0.1, -999.0
12-09-2023, 00:45:36,    286,    0.0,   15.8,   0.00,   0.00, 1011.0,    0.3, -999.0
12-09-2023, 00:45:46,    287,    0.0,   15.8,   0.00,   0.00, 1011.0,    0.0, -999.0
12-09-2023, 00:45:56,    287,    0.0,   15.8,   0.00,   0.00, 1011.0,    0.5, -999.0
12-09-2023, 00:46:07,    286,    0.0,   15.8,   0.00,   0.00, 1011.0,    0.2, -999.0
12-09-2023, 00:46:16,    287,    0.0,   15.8,   0.00,   0.00, 1011.0,    0.1, -999.0
12-09-2023, 00:46:26,    286,    0.0,   15.9,   0.00,   0.00, 1011.0,    0.4, -999.0
12-09-2023, 00:46:36,    287,    0.0,   15.8,   0.00,   0.00, 1011.0,    0.1, -999.0
12-09-2023, 00:46:46,    287,    0.0,   15.8,   0.00,   0.00, 1011.0,    0.3, -999.0